| time (UTC) | temp F | wind direction | speed MPH | gust MPH | rain 1hr in | rain 24hr in | rain mn in | humidity % | barometer mb |
| 20260509185409 | 70 | 99 | 1.0 | 1.0 | 0.00 | 0.00 | 0.00 | 54 | 1007.6 |
| 20260509184905 | 71 | 86 | 0.0 | 1.0 | 0.00 | 0.00 | 0.00 | 53 | 1007.7 |
| 20260509184402 | 71 | 141 | 1.0 | 2.0 | 0.00 | 0.00 | 0.00 | 51 | 1007.7 |
| 20260509183859 | 72 | 114 | 3.0 | 6.0 | 0.00 | 0.00 | 0.00 | 53 | 1007.8 |
| 20260509183353 | 71 | 85 | 0.0 | 1.0 | 0.00 | 0.00 | 0.00 | 51 | 1007.8 |
| 20260509182849 | 71 | 231 | 2.0 | 2.0 | 0.00 | 0.00 | 0.00 | 54 | 1007.9 |
| 20260509182347 | 70 | 96 | 5.0 | 6.0 | 0.00 | 0.00 | 0.00 | 52 | 1008.0 |
| 20260509181844 | 69 | 107 | 2.0 | 2.0 | 0.00 | 0.00 | 0.00 | 53 | 1008.4 |
| 20260509181341 | 71 | 119 | 3.0 | 5.0 | 0.00 | 0.00 | 0.00 | 53 | 1008.4 |
| 20260509180839 | 71 | 100 | 5.0 | 7.0 | 0.00 | 0.00 | 0.00 | 53 | 1008.2 |
| 20260509180334 | 68 | 86 | 3.0 | 5.0 | 0.00 | 0.00 | 0.00 | 55 | 1008.5 |
| 20260509175832 | 69 | 61 | 3.0 | 5.0 | 0.00 | 0.00 | 0.00 | 54 | 1008.8 |
| 20260509175328 | 69 | 59 | 1.0 | 2.0 | 0.00 | 0.00 | 0.00 | 56 | 1008.8 |
| 20260509174824 | 68 | 37 | 5.0 | 7.0 | 0.00 | 0.00 | 0.00 | 54 | 1008.9 |
| 20260509174319 | 68 | 78 | 5.0 | 10.0 | 0.00 | 0.00 | 0.00 | 54 | 1008.6 |
| 20260509173816 | 68 | 19 | 3.0 | 5.0 | 0.00 | 0.00 | 0.00 | 55 | 1008.7 |
| 20260509173311 | 67 | 85 | 2.0 | 2.0 | 0.00 | 0.00 | 0.00 | 56 | 1008.8 |
| 20260509172807 | 67 | 88 | 2.0 | 2.0 | 0.00 | 0.00 | 0.00 | 55 | 1008.8 |
| 20260509172306 | 67 | 58 | 4.0 | 8.0 | 0.00 | 0.00 | 0.00 | 55 | 1008.7 |
| 20260509171800 | 67 | 39 | 8.0 | 10.0 | 0.00 | 0.00 | 0.00 | 54 | 1008.7 |
| 20260509171256 | 68 | 63 | 2.0 | 5.0 | 0.00 | 0.00 | 0.00 | 53 | 1008.5 |
| 20260509170753 | 67 | 40 | 5.0 | 6.0 | 0.00 | 0.00 | 0.00 | 51 | 1009.0 |
| 20260509170249 | 67 | 30 | 2.0 | 3.0 | 0.00 | 0.00 | 0.00 | 52 | 1009.1 |
| 20260509165748 | 67 | 30 | 3.0 | 5.0 | 0.00 | 0.00 | 0.00 | 51 | 1009.1 |
| 20260509165243 | 67 | 44 | 3.0 | 5.0 | 0.00 | 0.00 | 0.00 | 50 | 1009.1 |
| 20260509164739 | 68 | 36 | 5.0 | 7.0 | 0.00 | 0.00 | 0.00 | 50 | 1009.3 |
| 20260509164235 | 68 | 26 | 3.0 | 3.0 | 0.00 | 0.00 | 0.00 | 49 | 1009.0 |
| 20260509163733 | 68 | 33 | 1.0 | 2.0 | 0.00 | 0.00 | 0.00 | 51 | 1008.9 |
| 20260509163229 | 68 | 44 | 4.0 | 6.0 | 0.00 | 0.00 | 0.00 | 48 | 1009.2 |
| 20260509162727 | 68 | 23 | 3.0 | 5.0 | 0.00 | 0.00 | 0.00 | 50 | 1009.0 |
| 20260509162221 | 68 | 63 | 5.0 | 6.0 | 0.00 | 0.00 | 0.00 | 50 | 1009.1 |
| 20260509161717 | 68 | 50 | 3.0 | 5.0 | 0.00 | 0.00 | 0.00 | 49 | 1009.0 |
| 20260509161214 | 68 | 80 | 1.0 | 2.0 | 0.00 | 0.00 | 0.00 | 50 | 1009.0 |
| 20260509160709 | 68 | 63 | 1.0 | 1.0 | 0.00 | 0.00 | 0.00 | 47 | 1009.1 |
| 20260509160206 | 68 | 109 | 2.0 | 2.0 | 0.00 | 0.00 | 0.00 | 51 | 1008.8 |
| 20260509155701 | 68 | 111 | 1.0 | 1.0 | 0.00 | 0.00 | 0.00 | 52 | 1008.8 |
| 20260509155157 | 68 | 106 | 3.0 | 3.0 | 0.00 | 0.00 | 0.00 | 50 | 1008.8 |
| 20260509154653 | 68 | 76 | 0.0 | 1.0 | 0.00 | 0.00 | 0.00 | 53 | 1008.8 |
| 20260509154151 | 69 | 63 | 2.0 | 3.0 | 0.00 | 0.00 | 0.00 | 52 | 1008.8 |
| 20260509153648 | 70 | 47 | 3.0 | 3.0 | 0.00 | 0.00 | 0.00 | 50 | 1008.8 |
| 20260509153144 | 69 | 178 | 1.0 | 2.0 | 0.00 | 0.00 | 0.00 | 51 | 1008.8 |
| 20260509152640 | 67 | 111 | 0.0 | 0.0 | 0.00 | 0.00 | 0.00 | 57 | 1009.0 |
| 20260509152137 | 68 | 91 | 0.0 | 1.0 | 0.00 | 0.00 | 0.00 | 54 | 1008.9 |
| 20260509151634 | 66 | 209 | 3.0 | 3.0 | 0.00 | 0.00 | 0.00 | 54 | 1009.1 |
| 20260509151131 | 68 | 67 | 0.0 | 2.0 | 0.00 | 0.00 | 0.00 | 54 | 1009.1 |
| 20260509150629 | 66 | 64 | 1.0 | 1.0 | 0.00 | 0.00 | 0.00 | 54 | 1009.2 |
| 20260509150127 | 65 | 73 | 1.0 | 2.0 | 0.00 | 0.00 | 0.00 | 56 | 1009.2 |
| 20260509145623 | 65 | 173 | 0.0 | 0.0 | 0.00 | 0.00 | 0.00 | 59 | 1009.4 |
| 20260509145118 | 65 | 239 | 4.0 | 6.0 | 0.00 | 0.00 | 0.00 | 58 | 1009.5 |
| 20260509144615 | 66 | 206 | 3.0 | 5.0 | 0.00 | 0.00 | 0.00 | 55 | 1009.5 |
| 20260509144112 | 67 | 211 | 4.0 | 5.0 | 0.00 | 0.00 | 0.00 | 55 | 1009.2 |
| 20260509143609 | 68 | 14 | 1.0 | 2.0 | 0.00 | 0.00 | 0.00 | 53 | 1009.4 |
| 20260509143107 | 66 | 130 | 1.0 | 2.0 | 0.00 | 0.00 | 0.00 | 58 | 1009.4 |
| 20260509142602 | 66 | 193 | 3.0 | 3.0 | 0.00 | 0.00 | 0.00 | 57 | 1009.6 |
| 20260509142058 | 65 | 81 | 1.0 | 2.0 | 0.00 | 0.00 | 0.00 | 56 | 1009.7 |
| 20260509141555 | 65 | 242 | 3.0 | 5.0 | 0.00 | 0.00 | 0.00 | 58 | 1009.8 |
| 20260509141051 | 66 | 342 | 4.0 | 5.0 | 0.00 | 0.00 | 0.00 | 55 | 1009.6 |
| 20260509140548 | 64 | 206 | 0.0 | 1.0 | 0.00 | 0.00 | 0.00 | 58 | 1009.7 |
| 20260509140046 | 65 | 206 | 1.0 | 2.0 | 0.00 | 0.00 | 0.00 | 57 | 1010.1 |
| 20260509135543 | 63 | 206 | 3.0 | 5.0 | 0.00 | 0.00 | 0.00 | 61 | 1009.8 |
| 20260509135041 | 61 | 207 | 1.0 | 1.0 | 0.00 | 0.00 | 0.00 | 61 | 1009.9 |
| 20260509134537 | 61 | 207 | 0.0 | 1.0 | 0.00 | 0.00 | 0.00 | 64 | 1010.2 |
| 20260509134035 | 60 | 207 | 2.0 | 2.0 | 0.00 | 0.00 | 0.00 | 65 | 1010.2 |
| 20260509133532 | 59 | 207 | 1.0 | 1.0 | 0.00 | 0.00 | 0.00 | 64 | 1010.0 |
| 20260509133030 | 59 | 207 | 1.0 | 1.0 | 0.00 | 0.00 | 0.00 | 62 | 1010.0 |
| 20260509132528 | 59 | 207 | 1.0 | 2.0 | 0.00 | 0.00 | 0.00 | 64 | 1009.9 |
| 20260509132026 | 59 | 207 | 1.0 | 2.0 | 0.00 | 0.00 | 0.00 | 65 | 1009.8 |
| 20260509131521 | 59 | 207 | 2.0 | 2.0 | 0.00 | 0.00 | 0.00 | 64 | 1009.6 |
| 20260509131019 | 58 | 213 | 3.0 | 3.0 | 0.00 | 0.00 | 0.00 | 67 | 1009.7 |
| 20260509130514 | 58 | 217 | 2.0 | 2.0 | 0.00 | 0.00 | 0.00 | 66 | 1009.9 |
| 20260509130011 | 57 | 205 | 2.0 | 2.0 | 0.00 | 0.00 | 0.00 | 67 | 1009.7 |
| 20260509125508 | 57 | 205 | 0.0 | 0.0 | 0.00 | 0.00 | 0.00 | 69 | 1010.0 |
| 20260509125004 | 56 | 205 | 1.0 | 1.0 | 0.00 | 0.00 | 0.00 | 69 | 1009.8 |
| 20260509124501 | 56 | 205 | 1.0 | 1.0 | 0.00 | 0.00 | 0.00 | 69 | 1010.0 |
| 20260509123958 | 56 | 214 | 1.0 | 2.0 | 0.00 | 0.00 | 0.00 | 71 | 1009.8 |
| 20260509123456 | 56 | 196 | 4.0 | 5.0 | 0.00 | 0.00 | 0.00 | 71 | 1010.1 |
| 20260509122951 | 55 | 193 | 3.0 | 3.0 | 0.00 | 0.00 | 0.00 | 70 | 1010.1 |
| 20260509122448 | 55 | 195 | 2.0 | 2.0 | 0.00 | 0.00 | 0.00 | 71 | 1009.9 |
| 20260509121945 | 55 | 196 | 1.0 | 1.0 | 0.00 | 0.00 | 0.00 | 72 | 1009.9 |
| 20260509121442 | 55 | 195 | 2.0 | 2.0 | 0.00 | 0.00 | 0.00 | 71 | 1010.0 |
| 20260509120940 | 55 | 195 | 3.0 | 3.0 | 0.00 | 0.00 | 0.00 | 70 | 1010.0 |
| 20260509120438 | 55 | 195 | 2.0 | 2.0 | 0.00 | 0.00 | 0.00 | 70 | 1010.1 |
| 20260509115935 | 55 | 195 | 1.0 | 2.0 | 0.00 | 0.00 | 0.00 | 71 | 1010.0 |
| 20260509115432 | 55 | 195 | 3.0 | 3.0 | 0.00 | 0.00 | 0.00 | 70 | 1010.0 |
| 20260509114930 | 55 | 195 | 1.0 | 2.0 | 0.00 | 0.00 | 0.00 | 72 | 1010.0 |
| 20260509114428 | 55 | 195 | 3.0 | 3.0 | 0.00 | 0.00 | 0.00 | 71 | 1009.9 |
| 20260509113928 | 54 | 196 | 3.0 | 3.0 | 0.00 | 0.00 | 0.00 | 71 | 1009.9 |
| 20260509113424 | 54 | 200 | 2.0 | 2.0 | 0.00 | 0.00 | 0.00 | 71 | 1009.7 |
| 20260509112921 | 54 | 202 | 3.0 | 3.0 | 0.00 | 0.00 | 0.00 | 72 | 1009.8 |
| 20260509112419 | 54 | 232 | 9.0 | 11.0 | 0.00 | 0.00 | 0.00 | 71 | 1009.8 |
| 20260509111915 | 54 | 176 | 9.0 | 9.0 | 0.00 | 0.00 | 0.00 | 71 | 1009.7 |
| 20260509111412 | 54 | 191 | 4.0 | 5.0 | 0.00 | 0.00 | 0.00 | 69 | 1009.7 |
| 20260509110910 | 55 | 203 | 3.0 | 3.0 | 0.00 | 0.00 | 0.00 | 69 | 1009.6 |
| 20260509110405 | 55 | 206 | 4.0 | 5.0 | 0.00 | 0.00 | 0.00 | 67 | 1009.7 |
| 20260509105904 | 54 | 213 | 3.0 | 3.0 | 0.00 | 0.00 | 0.00 | 72 | 1009.5 |
| 20260509105402 | 54 | 209 | 3.0 | 3.0 | 0.00 | 0.00 | 0.00 | 70 | 1009.6 |
| 20260509104858 | 54 | 203 | 3.0 | 3.0 | 0.00 | 0.00 | 0.00 | 73 | 1009.6 |
| 20260509104355 | 54 | 202 | 3.0 | 3.0 | 0.00 | 0.00 | 0.00 | 70 | 1009.5 |
| 20260509103853 | 53 | 204 | 3.0 | 3.0 | 0.00 | 0.00 | 0.00 | 72 | 1009.6 |
| 20260509103350 | 54 | 204 | 3.0 | 3.0 | 0.00 | 0.00 | 0.00 | 70 | 1009.7 |
| 20260509102849 | 54 | 221 | 3.0 | 3.0 | 0.00 | 0.00 | 0.00 | 70 | 1009.7 |
| 20260509102346 | 53 | 220 | 3.0 | 3.0 | 0.00 | 0.00 | 0.00 | 71 | 1009.7 |
| 20260509101841 | 53 | 209 | 3.0 | 3.0 | 0.00 | 0.00 | 0.00 | 72 | 1009.8 |
| 20260509101337 | 53 | 204 | 3.0 | 3.0 | 0.00 | 0.00 | 0.00 | 72 | 1009.8 |
| 20260509100836 | 53 | 199 | 3.0 | 3.0 | 0.00 | 0.00 | 0.00 | 73 | 1009.5 |
| 20260509100333 | 53 | 193 | 2.0 | 2.0 | 0.00 | 0.00 | 0.00 | 74 | 1009.5 |
| 20260509095829 | 53 | 193 | 2.0 | 2.0 | 0.00 | 0.00 | 0.00 | 72 | 1009.3 |
| 20260509095326 | 54 | 193 | 1.0 | 1.0 | 0.00 | 0.00 | 0.00 | 70 | 1009.5 |
| 20260509094823 | 54 | 195 | 2.0 | 2.0 | 0.00 | 0.00 | 0.00 | 70 | 1009.7 |
| 20260509094320 | 53 | 196 | 3.0 | 3.0 | 0.00 | 0.00 | 0.00 | 70 | 1009.8 |
| 20260509093818 | 53 | 193 | 3.0 | 3.0 | 0.00 | 0.00 | 0.00 | 71 | 1009.7 |
| 20260509093315 | 53 | 192 | 3.0 | 3.0 | 0.00 | 0.00 | 0.00 | 72 | 1009.8 |
| 20260509092813 | 54 | 192 | 2.0 | 2.0 | 0.00 | 0.00 | 0.00 | 71 | 1009.8 |
| 20260509092311 | 54 | 192 | 1.0 | 2.0 | 0.00 | 0.00 | 0.00 | 69 | 1009.5 |
| 20260509091809 | 54 | 192 | 2.0 | 2.0 | 0.00 | 0.00 | 0.00 | 69 | 1009.5 |
| 20260509091305 | 54 | 192 | 1.0 | 1.0 | 0.00 | 0.00 | 0.00 | 68 | 1009.8 |
| 20260509090803 | 54 | 192 | 1.0 | 1.0 | 0.00 | 0.00 | 0.00 | 68 | 1009.4 |
| 20260509090259 | 55 | 192 | 1.0 | 2.0 | 0.00 | 0.00 | 0.00 | 67 | 1009.8 |
| 20260509085757 | 55 | 192 | 2.0 | 2.0 | 0.00 | 0.00 | 0.00 | 66 | 1009.6 |
| 20260509085254 | 55 | 192 | 1.0 | 1.0 | 0.00 | 0.00 | 0.00 | 66 | 1009.7 |
| 20260509084751 | 55 | 192 | 2.0 | 2.0 | 0.00 | 0.00 | 0.00 | 64 | 1009.7 |
| 20260509084247 | 55 | 192 | 3.0 | 3.0 | 0.00 | 0.00 | 0.00 | 65 | 1009.8 |
| 20260509083745 | 56 | 192 | 5.0 | 6.0 | 0.00 | 0.00 | 0.00 | 63 | 1009.9 |
| 20260509083242 | 57 | 194 | 3.0 | 5.0 | 0.00 | 0.00 | 0.00 | 61 | 1010.0 |
| 20260509082738 | 57 | 196 | 2.0 | 2.0 | 0.00 | 0.00 | 0.00 | 59 | 1010.0 |
| 20260509082235 | 57 | 208 | 3.0 | 3.0 | 0.00 | 0.00 | 0.00 | 59 | 1009.8 |
| 20260509081732 | 57 | 231 | 0.0 | 1.0 | 0.00 | 0.00 | 0.00 | 60 | 1009.9 |
| 20260509081230 | 57 | 202 | 0.0 | 1.0 | 0.00 | 0.00 | 0.00 | 59 | 1009.9 |
| 20260509080727 | 57 | 195 | 2.0 | 3.0 | 0.00 | 0.00 | 0.00 | 58 | 1009.9 |
| 20260509080225 | 57 | 140 | 1.0 | 2.0 | 0.00 | 0.00 | 0.00 | 59 | 1010.2 |
| 20260509075723 | 57 | 108 | 1.0 | 1.0 | 0.00 | 0.00 | 0.00 | 59 | 1010.1 |
| 20260509075220 | 57 | 137 | 2.0 | 2.0 | 0.00 | 0.00 | 0.00 | 59 | 1010.2 |
| 20260509074717 | 57 | 245 | 3.0 | 3.0 | 0.00 | 0.00 | 0.00 | 59 | 1010.1 |
| 20260509074215 | 57 | 172 | 2.0 | 2.0 | 0.00 | 0.00 | 0.00 | 60 | 1010.0 |
| 20260509073711 | 57 | 148 | 1.0 | 2.0 | 0.00 | 0.00 | 0.00 | 61 | 1010.3 |
| 20260509073207 | 57 | 195 | 3.0 | 3.0 | 0.00 | 0.00 | 0.00 | 60 | 1010.3 |
| 20260509072704 | 57 | 178 | 2.0 | 2.0 | 0.00 | 0.00 | 0.00 | 60 | 1010.2 |
| 20260509072201 | 57 | 116 | 1.0 | 2.0 | 0.00 | 0.00 | 0.00 | 59 | 1010.2 |
| 20260509071657 | 57 | 188 | 3.0 | 5.0 | 0.00 | 0.00 | 0.00 | 60 | 1010.3 |
| 20260509071155 | 57 | 127 | 1.0 | 1.0 | 0.00 | 0.00 | 0.00 | 60 | 1010.0 |
| 20260509070651 | 57 | 34 | 2.0 | 3.0 | 0.00 | 0.00 | 0.00 | 59 | 1010.2 |
| 20260509070147 | 57 | 253 | 4.0 | 5.0 | 0.00 | 0.00 | 0.00 | 58 | 1010.3 |
| 20260509065644 | 57 | 279 | 1.0 | 2.0 | 0.00 | 0.00 | 0.00 | 60 | 1010.5 |
| 20260509065140 | 57 | 335 | 3.0 | 5.0 | 0.00 | 0.00 | 0.00 | 59 | 1010.4 |
| 20260509064637 | 56 | 227 | 4.0 | 5.0 | 0.00 | 0.00 | 0.00 | 60 | 1010.6 |
| 20260509064135 | 56 | 289 | 2.0 | 2.0 | 0.00 | 0.00 | 0.00 | 60 | 1010.4 |
| 20260509063632 | 56 | 309 | 2.0 | 2.0 | 0.00 | 0.00 | 0.00 | 61 | 1010.4 |
| 20260509063128 | 56 | 232 | 2.0 | 3.0 | 0.00 | 0.00 | 0.00 | 61 | 1010.6 |
| 20260509062626 | 56 | 341 | 2.0 | 2.0 | 0.00 | 0.00 | 0.00 | 61 | 1010.8 |
| 20260509062122 | 56 | 357 | 1.0 | 2.0 | 0.00 | 0.00 | 0.00 | 61 | 1010.6 |
| 20260509061619 | 56 | 52 | 1.0 | 1.0 | 0.00 | 0.00 | 0.00 | 60 | 1010.4 |
| 20260509061117 | 57 | 265 | 2.0 | 2.0 | 0.00 | 0.00 | 0.00 | 60 | 1010.7 |
| 20260509060615 | 57 | 263 | 2.0 | 3.0 | 0.00 | 0.00 | 0.00 | 60 | 1010.6 |
| 20260509060110 | 57 | 311 | 1.0 | 2.0 | 0.00 | 0.00 | 0.00 | 59 | 1010.6 |
| 20260509055606 | 57 | 209 | 2.0 | 2.0 | 0.00 | 0.00 | 0.00 | 59 | 1011.0 |
| 20260509055102 | 57 | 148 | 1.0 | 2.0 | 0.00 | 0.00 | 0.00 | 60 | 1010.6 |
| 20260509054559 | 57 | 259 | 2.0 | 2.0 | 0.00 | 0.00 | 0.00 | 59 | 1010.8 |
| 20260509054057 | 57 | 61 | 1.0 | 1.0 | 0.00 | 0.00 | 0.00 | 59 | 1010.7 |
| 20260509053555 | 57 | 243 | 5.0 | 6.0 | 0.00 | 0.00 | 0.00 | 58 | 1011.0 |
| 20260509053051 | 57 | 271 | 2.0 | 3.0 | 0.00 | 0.00 | 0.00 | 59 | 1011.1 |
| 20260509052549 | 58 | 265 | 5.0 | 6.0 | 0.00 | 0.00 | 0.00 | 58 | 1010.8 |
| 20260509052047 | 58 | 268 | 4.0 | 6.0 | 0.00 | 0.00 | 0.00 | 57 | 1010.8 |
| 20260509051545 | 58 | 234 | 3.0 | 3.0 | 0.00 | 0.00 | 0.00 | 57 | 1010.8 |
| 20260509051041 | 59 | 224 | 6.0 | 7.0 | 0.00 | 0.00 | 0.00 | 57 | 1010.8 |
| 20260509050538 | 59 | 212 | 2.0 | 2.0 | 0.00 | 0.00 | 0.00 | 57 | 1011.1 |
| 20260509050034 | 59 | 247 | 2.0 | 2.0 | 0.00 | 0.00 | 0.00 | 57 | 1011.0 |
| 20260509045532 | 59 | 195 | 4.0 | 6.0 | 0.00 | 0.00 | 0.00 | 57 | 1010.8 |
| 20260509045029 | 59 | 252 | 6.0 | 7.0 | 0.00 | 0.00 | 0.00 | 57 | 1010.8 |
| 20260509044527 | 59 | 206 | 1.0 | 1.0 | 0.00 | 0.00 | 0.00 | 57 | 1010.7 |
| 20260509044024 | 59 | 239 | 7.0 | 9.0 | 0.00 | 0.00 | 0.00 | 56 | 1010.7 |
| 20260509043520 | 59 | 221 | 2.0 | 3.0 | 0.00 | 0.00 | 0.00 | 56 | 1010.6 |
| 20260509043016 | 59 | 224 | 3.0 | 3.0 | 0.00 | 0.00 | 0.00 | 57 | 1011.1 |
| 20260509042512 | 59 | 229 | 1.0 | 2.0 | 0.00 | 0.00 | 0.00 | 58 | 1010.6 |
| 20260509042008 | 59 | 234 | 2.0 | 2.0 | 0.00 | 0.00 | 0.00 | 57 | 1011.0 |
| 20260509041505 | 59 | 222 | 1.0 | 1.0 | 0.00 | 0.00 | 0.00 | 57 | 1011.1 |
| 20260509041003 | 59 | 246 | 0.0 | 0.0 | 0.00 | 0.00 | 0.00 | 58 | 1010.8 |
| 20260509040501 | 59 | 209 | 2.0 | 2.0 | 0.00 | 0.00 | 0.00 | 58 | 1011.0 |
| 20260509035957 | 59 | 235 | 1.0 | 1.0 | 0.00 | 0.00 | 0.00 | 57 | 1011.1 |
| 20260509035454 | 60 | 177 | 1.0 | 1.0 | 0.00 | 0.00 | 0.00 | 57 | 1010.7 |
| 20260509034951 | 60 | 223 | 3.0 | 3.0 | 0.00 | 0.00 | 0.00 | 57 | 1010.6 |
| 20260509034449 | 60 | 97 | 0.0 | 0.0 | 0.00 | 0.00 | 0.00 | 57 | 1010.8 |
| 20260509033946 | 60 | 237 | 3.0 | 5.0 | 0.00 | 0.00 | 0.00 | 56 | 1010.7 |
| 20260509033443 | 60 | 234 | 3.0 | 3.0 | 0.00 | 0.00 | 0.00 | 56 | 1011.2 |
| 20260509032939 | 60 | 280 | 5.0 | 6.0 | 0.00 | 0.00 | 0.00 | 56 | 1011.0 |
| 20260509032437 | 60 | 191 | 1.0 | 1.0 | 0.00 | 0.00 | 0.00 | 57 | 1011.0 |
| 20260509031934 | 59 | 232 | 2.0 | 3.0 | 0.00 | 0.00 | 0.00 | 57 | 1011.0 |
| 20260509031432 | 59 | 60 | 1.0 | 1.0 | 0.00 | 0.00 | 0.00 | 57 | 1010.7 |
| 20260509030929 | 59 | 202 | 2.0 | 2.0 | 0.00 | 0.00 | 0.00 | 58 | 1011.1 |
| 20260509030427 | 59 | 134 | 1.0 | 1.0 | 0.00 | 0.00 | 0.00 | 58 | 1010.7 |
| 20260509025924 | 58 | 232 | 3.0 | 3.0 | 0.00 | 0.00 | 0.00 | 58 | 1011.0 |
| 20260509025419 | 57 | 150 | 1.0 | 2.0 | 0.00 | 0.00 | 0.00 | 59 | 1011.0 |
| 20260509024914 | 57 | 125 | 0.0 | 1.0 | 0.00 | 0.00 | 0.00 | 60 | 1011.0 |
| 20260509024411 | 56 | 49 | 1.0 | 2.0 | 0.00 | 0.00 | 0.00 | 63 | 1011.3 |
| 20260509023908 | 55 | 62 | 1.0 | 1.0 | 0.00 | 0.00 | 0.00 | 65 | 1011.1 |
| 20260509023405 | 55 | 23 | 1.0 | 1.0 | 0.00 | 0.00 | 0.00 | 65 | 1011.3 |
| 20260509022902 | 55 | 56 | 1.0 | 1.0 | 0.00 | 0.00 | 0.00 | 64 | 1011.2 |
| 20260509022359 | 55 | 105 | 1.0 | 1.0 | 0.00 | 0.00 | 0.00 | 64 | 1011.1 |
| 20260509021856 | 55 | 43 | 1.0 | 2.0 | 0.00 | 0.00 | 0.00 | 63 | 1011.1 |
| 20260509021353 | 55 | 29 | 1.0 | 2.0 | 0.00 | 0.00 | 0.00 | 64 | 1011.1 |
| 20260509020851 | 56 | 124 | 0.0 | 1.0 | 0.00 | 0.00 | 0.00 | 63 | 1011.1 |
| 20260509020349 | 56 | 124 | 0.0 | 1.0 | 0.00 | 0.00 | 0.00 | 60 | 1010.7 |
| 20260509015846 | 57 | 117 | 0.0 | 0.0 | 0.00 | 0.00 | 0.00 | 61 | 1011.0 |
| 20260509015344 | 58 | 57 | 1.0 | 1.0 | 0.00 | 0.00 | 0.00 | 59 | 1011.0 |
| 20260509014840 | 58 | 89 | 0.0 | 0.0 | 0.00 | 0.00 | 0.00 | 56 | 1011.0 |
| 20260509014337 | 59 | 28 | 1.0 | 1.0 | 0.00 | 0.00 | 0.00 | 57 | 1011.1 |
| 20260509013834 | 60 | 216 | 0.0 | 1.0 | 0.00 | 0.00 | 0.00 | 54 | 1010.8 |
| 20260509013330 | 61 | 218 | 0.0 | 1.0 | 0.00 | 0.00 | 0.00 | 53 | 1011.0 |
| 20260509012826 | 61 | 205 | 1.0 | 1.0 | 0.00 | 0.00 | 0.00 | 51 | 1010.8 |
| 20260509012323 | 59 | 266 | 3.0 | 3.0 | 0.00 | 0.00 | 0.00 | 53 | 1010.7 |
| 20260509011820 | 59 | 226 | 3.0 | 5.0 | 0.00 | 0.00 | 0.00 | 53 | 1010.7 |
| 20260509011312 | 58 | 69 | 0.0 | 1.0 | 0.00 | 0.00 | 0.00 | 56 | 1010.7 |
| 20260509010810 | 58 | 42 | 1.0 | 1.0 | 0.00 | 0.00 | 0.00 | 56 | 1010.5 |
| 20260509010307 | 58 | 48 | 1.0 | 1.0 | 0.00 | 0.00 | 0.00 | 55 | 1010.6 |
| 20260509005804 | 59 | 74 | 0.0 | 1.0 | 0.00 | 0.00 | 0.00 | 55 | 1010.7 |
| 20260509005306 | 59 | 53 | 1.0 | 1.0 | 0.00 | 0.00 | 0.00 | 56 | 1010.6 |
| 20260509004801 | 60 | 33 | 1.0 | 1.0 | 0.00 | 0.00 | 0.00 | 52 | 1010.6 |
| 20260509004258 | 61 | 45 | 1.0 | 1.0 | 0.00 | 0.00 | 0.00 | 51 | 1010.3 |
| 20260509003756 | 61 | 55 | 1.0 | 1.0 | 0.00 | 0.00 | 0.00 | 50 | 1010.4 |
| 20260509003253 | 62 | 210 | 1.0 | 1.0 | 0.00 | 0.00 | 0.00 | 49 | 1010.3 |
| 20260509002750 | 62 | 202 | 2.0 | 2.0 | 0.00 | 0.00 | 0.00 | 48 | 1010.3 |
| 20260509002248 | 63 | 202 | 1.0 | 2.0 | 0.00 | 0.00 | 0.00 | 47 | 1010.4 |
| 20260509001746 | 63 | 195 | 1.0 | 1.0 | 0.00 | 0.00 | 0.00 | 47 | 1010.2 |
| 20260509001241 | 64 | 195 | 2.0 | 2.0 | 0.00 | 0.00 | 0.00 | 46 | 1010.2 |
| 20260509000739 | 65 | 195 | 2.0 | 2.0 | 0.00 | 0.00 | 0.00 | 43 | 1010.3 |
| 20260509000236 | 66 | 195 | 0.0 | 1.0 | 0.00 | 0.00 | 0.00 | 42 | 1010.0 |
| 20260508235733 | 66 | 207 | 3.0 | 3.0 | 0.00 | 0.00 | 0.00 | 41 | 1009.9 |
| 20260508235230 | 67 | 181 | 1.0 | 1.0 | 0.00 | 0.00 | 0.00 | 40 | 1009.9 |
| 20260508234727 | 68 | 222 | 2.0 | 3.0 | 0.00 | 0.00 | 0.00 | 40 | 1009.8 |
| 20260508234223 | 68 | 213 | 4.0 | 5.0 | 0.00 | 0.00 | 0.00 | 39 | 1010.0 |
| 20260508233717 | 68 | 181 | 5.0 | 6.0 | 0.00 | 0.00 | 0.00 | 38 | 1010.0 |
| 20260508233215 | 68 | 212 | 6.0 | 7.0 | 0.00 | 0.00 | 0.00 | 39 | 1010.0 |
| 20260508232712 | 68 | 198 | 7.0 | 9.0 | 0.00 | 0.00 | 0.00 | 37 | 1009.7 |
| 20260508232208 | 68 | 160 | 2.0 | 2.0 | 0.00 | 0.00 | 0.00 | 37 | 1009.5 |
| 20260508231706 | 69 | 232 | 7.0 | 8.0 | 0.00 | 0.00 | 0.00 | 37 | 1009.6 |
| 20260508231203 | 69 | 219 | 4.0 | 5.0 | 0.00 | 0.00 | 0.00 | 38 | 1009.7 |
| 20260508230700 | 69 | 191 | 4.0 | 5.0 | 0.00 | 0.00 | 0.00 | 38 | 1009.8 |
| 20260508230156 | 69 | 200 | 2.0 | 2.0 | 0.00 | 0.00 | 0.00 | 39 | 1009.9 |
| 20260508225654 | 69 | 188 | 4.0 | 5.0 | 0.00 | 0.00 | 0.00 | 36 | 1009.6 |
| 20260508225150 | 70 | 175 | 8.0 | 10.0 | 0.00 | 0.00 | 0.00 | 36 | 1009.7 |
| 20260508224648 | 70 | 191 | 4.0 | 5.0 | 0.00 | 0.00 | 0.00 | 35 | 1009.9 |
| 20260508224145 | 70 | 165 | 3.0 | 3.0 | 0.00 | 0.00 | 0.00 | 34 | 1009.6 |
| 20260508223643 | 71 | 189 | 3.0 | 3.0 | 0.00 | 0.00 | 0.00 | 34 | 1009.7 |
| 20260508223140 | 71 | 177 | 5.0 | 5.0 | 0.00 | 0.00 | 0.00 | 34 | 1009.6 |
| 20260508222637 | 71 | 88 | 0.0 | 1.0 | 0.00 | 0.00 | 0.00 | 38 | 1009.7 |
| 20260508222134 | 71 | 87 | 0.0 | 1.0 | 0.00 | 0.00 | 0.00 | 35 | 1009.8 |
| 20260508221630 | 71 | 89 | 0.0 | 1.0 | 0.00 | 0.00 | 0.00 | 35 | 1009.8 |
| 20260508221126 | 71 | 73 | 0.0 | 1.0 | 0.00 | 0.00 | 0.00 | 36 | 1009.6 |
| 20260508220623 | 71 | 249 | 0.0 | 0.0 | 0.00 | 0.00 | 0.00 | 35 | 1009.6 |
| 20260508220119 | 72 | 244 | 6.0 | 7.0 | 0.00 | 0.00 | 0.00 | 34 | 1009.4 |
| 20260508215616 | 73 | 160 | 2.0 | 2.0 | 0.00 | 0.00 | 0.00 | 32 | 1009.3 |
| 20260508215113 | 74 | 141 | 1.0 | 1.0 | 0.00 | 0.00 | 0.00 | 36 | 1009.5 |
| 20260508214610 | 73 | 100 | 1.0 | 1.0 | 0.00 | 0.00 | 0.00 | 33 | 1009.7 |
| 20260508214107 | 72 | 245 | 3.0 | 3.0 | 0.00 | 0.00 | 0.00 | 34 | 1009.7 |
| 20260508213604 | 73 | 279 | 5.0 | 7.0 | 0.00 | 0.00 | 0.00 | 33 | 1009.7 |
| 20260508213100 | 72 | 332 | 2.0 | 2.0 | 0.00 | 0.00 | 0.00 | 32 | 1009.5 |
| 20260508212556 | 73 | 338 | 5.0 | 7.0 | 0.00 | 0.00 | 0.00 | 33 | 1009.7 |
| 20260508212053 | 73 | 263 | 4.0 | 6.0 | 0.00 | 0.00 | 0.00 | 36 | 1009.8 |
| 20260508211548 | 72 | 42 | 1.0 | 1.0 | 0.00 | 0.00 | 0.00 | 36 | 1009.9 |
| 20260508211045 | 73 | 327 | 4.0 | 5.0 | 0.00 | 0.00 | 0.00 | 31 | 1009.8 |
| 20260508210541 | 73 | 56 | 1.0 | 1.0 | 0.00 | 0.00 | 0.00 | 32 | 1009.9 |
| 20260508210039 | 72 | 270 | 2.0 | 3.0 | 0.00 | 0.00 | 0.00 | 34 | 1009.8 |
| 20260508205536 | 73 | 330 | 2.0 | 3.0 | 0.00 | 0.00 | 0.00 | 36 | 1010.1 |
| 20260508205032 | 73 | 261 | 7.0 | 8.0 | 0.00 | 0.00 | 0.00 | 31 | 1009.8 |
| 20260508204529 | 73 | 302 | 2.0 | 2.0 | 0.00 | 0.00 | 0.00 | 32 | 1010.0 |
| 20260508204025 | 72 | 208 | 3.0 | 3.0 | 0.00 | 0.00 | 0.00 | 33 | 1010.2 |
| 20260508203521 | 71 | 220 | 2.0 | 2.0 | 0.00 | 0.00 | 0.00 | 32 | 1010.2 |
| 20260508203017 | 72 | 112 | 2.0 | 2.0 | 0.00 | 0.00 | 0.00 | 34 | 1010.2 |
| 20260508202514 | 73 | 316 | 4.0 | 6.0 | 0.00 | 0.00 | 0.00 | 32 | 1010.3 |
| 20260508202011 | 73 | 24 | 4.0 | 8.0 | 0.00 | 0.00 | 0.00 | 35 | 1010.0 |
| 20260508201508 | 73 | 280 | 6.0 | 10.0 | 0.00 | 0.00 | 0.00 | 32 | 1010.3 |
| 20260508201004 | 73 | 243 | 4.0 | 5.0 | 0.00 | 0.00 | 0.00 | 36 | 1010.1 |
| 20260508200501 | 72 | 242 | 5.0 | 7.0 | 0.00 | 0.00 | 0.00 | 32 | 1010.2 |
| 20260508195956 | 71 | 281 | 3.0 | 5.0 | 0.00 | 0.00 | 0.00 | 33 | 1010.5 |
| 20260508195454 | 72 | 284 | 3.0 | 5.0 | 0.00 | 0.00 | 0.00 | 33 | 1010.4 |
| 20260508194950 | 71 | 286 | 2.0 | 3.0 | 0.00 | 0.00 | 0.00 | 35 | 1010.6 |
| 20260508194447 | 72 | 305 | 7.0 | 9.0 | 0.00 | 0.00 | 0.00 | 32 | 1010.7 |
| 20260508193944 | 70 | 240 | 4.0 | 6.0 | 0.00 | 0.00 | 0.00 | 33 | 1010.6 |
| 20260508193441 | 69 | 250 | 6.0 | 7.0 | 0.00 | 0.00 | 0.00 | 34 | 1010.8 |
| 20260508192937 | 69 | 241 | 2.0 | 2.0 | 0.00 | 0.00 | 0.00 | 34 | 1011.0 |
| 20260508192434 | 70 | 257 | 3.0 | 5.0 | 0.00 | 0.00 | 0.00 | 32 | 1011.2 |
| 20260508191931 | 71 | 341 | 3.0 | 3.0 | 0.00 | 0.00 | 0.00 | 32 | 1011.1 |
| 20260508191428 | 70 | 37 | 1.0 | 1.0 | 0.00 | 0.00 | 0.00 | 32 | 1011.1 |
| 20260508190925 | 70 | 240 | 3.0 | 5.0 | 0.00 | 0.00 | 0.00 | 33 | 1011.3 |
| 20260508190422 | 71 | 50 | 1.0 | 1.0 | 0.00 | 0.00 | 0.00 | 32 | 1011.3 |
| 20260508185918 | 71 | 314 | 2.0 | 2.0 | 0.00 | 0.00 | 0.00 | 34 | 1011.4 |